Retour au catalogue

COSMOS 1410 DEB

ActifPO
NORAD 44696·DEBRIS·🇷🇺 Russia

Lancé Sep 24, 1982 depuis Plesetsk Cosmodrome

Loading…

Prochains Passages (prochaines 24 heures)

TLE

VieillissantSource: Space-Track

Époque: Sep 3, 2026, 05:47 UTC

1 44696U 82096C   26246.24109056  .00000021  00000-0  77463-4 0  9995
2 44696  82.6049  62.7443 0004972 127.5956 232.5576 12.42653940537161

Suivez COSMOS 1410 DEB en temps réel avec AllMySat

Download on the App Store